Location: Newark
(58.9986°N, 38.5006°E)
Time: 00:20:09
(UTC+00:00)

N. Korean satellite - Pass Details

Date: 17 December 2019
Orbit: 454 x 507 km, 97.2° (Epoch: 24 January)

Event Time Altitude Azimuth Distance (km) Brightness Sun altitude
Rises 05:04:27 0° 7° (N) 2,550 10.0 -7.8°
Reaches altitude 10° 05:07:00 10° 348° (NNW) 1,655 8.8 -7.5°
Maximum altitude 05:09:27 18° 304° (NW) 1,229 8.0 -7.2°
Drops below altitude 10° 05:11:52 10° 260° (W) 1,628 8.8 -7.0°
Sets 05:14:21 0° 241° (WSW) 2,491 9.9 -6.7°
